STARLINK-1473 (45737 NORAD) Tracking and Keplerian Element Data

This shows tracking and keplerian element data for the satellite.

Feedback or suggestion? Click here.




ElementValue
Catalog45737
NameSTARLINK-1473
Epoch Orbit976
Epoch Day219.16667824
Epoch Year2020
RAAN30.7025
Inclination53.0069
Eccentricity0.0001142
Argument of Perigee84.758
Mean Anonmoly350.6217
Mean Motion15.83423054
Decay Rate0.01419759
L11 45737U 20038H 20219.16667824 .01419759 00000-0 56701-2 0 9990
L22 45737 53.0069 30.7025 0001142 84.7580 350.6217 15.83423054 9769

Live tracking and technical data element details for STARLINK-1473 (NORAD 45737). STARLINK-1473 can be tracked NOW for your location showing map with azimuth and elevation plus other details from your city location.

Track the satellite on the map from your city or location and see movement details for azimuth, elevation, latitude, longitude, range, height, and movement on the map or in text.







IsCatalogInMostPopularTable: catalog: 45737, numindb: 6
Update: records affected: 1



GetName: 45737 STARLINK-1473

Hit Count: updated at: Sat, 08 Aug 2020 00:50:19 GMT